This demonstration page uses our WeatherBlox Daily Observations layout. Learn more.

36.17497, -115.13722

Hourly Observations for September 8, 2019

Temp ( °F °C ) Dew Point ( °F °C ) Humidity (%) Winds ( mph kmh ) Pressure ( in mb ) Visibility ( mi km ) Precip ( " mm )
12:53 am 00:53 Clear 87 30.6 34 1.1 15 15 SSW 13 20 29.68 1005 10 16.09344 0 0
1:53 am 01:53 Clear 85 29.4 37 2.8 18 18 SSW 6 9 29.68 1005 10 16.09344 0 0
2:53 am 02:53 Clear 83 28.3 38 3.3 20 20 WSW 9 15 29.68 1005 10 16.09344 0 0
3:53 am 03:53 Clear 81 27.2 32 0 17 17 SW 18 30 29.65 1004 10 16.09344 0 0
4:53 am 04:53 Clear 80 26.7 29 -1.7 15 15 SW 10 17 29.65 1004 10 16.09344 0 0
5:53 am 05:53 Clear 77 25 30 -1.1 18 18 E 13 20 29.68 1005 10 16.09344 0 0
6:53 am 06:53 Sunny 76 24.4 31 -0.6 19 19 Calm 29.71 1006 10 16.09344 0 0
7:53 am 07:53 Sunny 78 25.6 33 0.6 19 19 NNW 3 6 29.74 1007 10 16.09344 0 0
8:53 am 08:53 Sunny 81 27.2 31 -0.6 16 16 VRB 3 6 29.74 1007 10 16.09344 0 0
9:53 am 09:53 Sunny 85 29.4 32 0 15 15 SSW 6 9 29.74 1007 10 16.09344 0 0
10:53 am 10:53 Sunny 87 30.6 32 0 14 14 VRB 5 7 29.74 1007 10 16.09344 0 0
11:53 am 11:53 Sunny 89 31.7 32 0 13 13 SSE 15 24 29.74 1007 10 16.09344 0 0
12:53 pm 12:53 Sunny 92 33.3 32 0 12 12 S 18 30 29.71 1006 10 16.09344 0 0
1:53 pm 13:53 Sunny 92 33.3 31 -0.6 11 11 SSE 10 17 29.71 1006 10 16.09344 0 0
2:53 pm 14:53 Sunny 94 34.4 33 0.6 12 12 S 15 24 29.71 1006 10 16.09344 0 0
3:53 pm 15:53 Sunny 94 34.4 32 0 11 11 ESE 9 15 29.68 1005 10 16.09344 0 0
4:53 pm 16:53 Sunny 95 35 29 -1.7 9 9 WNW 8 13 29.68 1005 10 16.09344 0 0
5:53 pm 17:53 Sunny 94 34.4 29 -1.7 10 10 Calm 29.68 1005 10 16.09344 0 0
6:53 pm 18:53 Sunny 93 33.9 25 -3.9 8 8 NNW 8 13 29.68 1005 10 16.09344 0 0
7:53 pm 19:53 Clear 91 32.8 27 -2.8 10 10 WSW 12 19 29.68 1005 10 16.09344 0 0
8:53 pm 20:53 Clear 89 31.7 26 -3.3 10 10 W 7 11 29.71 1006 10 16.09344 0 0
9:53 pm 21:53 Clear 87 30.6 26 -3.3 11 11 WSW 3 6 29.74 1007 10 16.09344 0 0
10:53 pm 22:53 Clear 83 28.3 27 -2.8 13 13 Calm 29.74 1007 10 16.09344 0 0
11:53 pm 23:53 Clear 82 27.8 28 -2.2 14 14 Calm 29.74 1007 10 16.09344 0 0

Powered by AerisWeather